EW9027 Weather Reports


time (UTC)temp
F
wind
direction
speed
knots
gust
knots
rain 1hr
in
rain 24hr
in
rain mn
in
humidity
%
barometer
mb
20260507170019 60 262 0.9 4.3 0.00 0.00 0.00 58 1013.0
20260507164514 61 257 0.0 3.5 0.00 0.00 0.00 56 1012.8
20260507163013 61 329 0.0 4.3 0.00 0.00 0.00 55 1012.7
20260507161518 62 313 1.7 4.3 0.00 0.00 0.00 53 1012.7
20260507160014 62 11 0.9 3.5 0.00 0.00 0.00 53 1012.7
20260507154512 62 309 1.7 5.2 0.00 0.00 0.00 52 1012.7
20260507153012 62 329 0.9 5.2 0.00 0.00 0.00 52 1012.6
20260507151515 63 242 1.7 7.8 0.00 0.00 0.00 51 1012.6
20260507150013 64 252 0.0 5.2 0.00 0.09 0.00 49 1012.5
20260507144508 64 115 3.5 8.7 0.00 0.09 0.00 47 1012.5
20260507143006 64 42 1.7 7.0 0.00 0.09 0.00 51 1012.4
20260507141505 63 44 2.6 6.1 0.00 0.09 0.00 54 1012.5
20260507140009 63 321 1.7 7.8 0.00 0.13 0.00 53 1012.5
20260507134516 64 193 2.6 7.8 0.00 0.13 0.00 52 1012.4
20260507133006 64 285 0.0 7.0 0.00 0.13 0.00 52 1012.5
20260507131511 64 266 2.6 6.1 0.00 0.13 0.00 54 1012.5
20260507130003 64 327 1.7 7.8 0.00 0.13 0.00 55 1012.6
20260507124501 63 259 1.7 6.1 0.00 0.13 0.00 55 1012.5
20260507123108 64 268 3.5 7.0 0.00 0.13 0.00 54 1012.4
20260507121608 63 255 1.7 7.0 0.00 0.13 0.00 54 1012.3
20260507120058 64 34 0.0 4.3 0.00 0.13 0.00 53 1012.3
20260507114601 63 281 1.7 8.7 0.00 0.13 0.00 55 1012.3
20260507113057 64 276 3.5 8.7 0.00 0.13 0.00 54 1012.2
20260507111555 65 261 0.9 7.8 0.00 0.13 0.00 52 1012.2
20260507110107 64 205 4.3 8.7 0.00 0.13 0.00 54 1012.2
20260507104554 63 203 3.5 7.0 0.00 0.13 0.00 55 1012.2
20260507103055 64 264 1.7 7.0 0.00 0.13 0.00 55 1012.3
20260507101551 64 283 0.9 8.7 0.00 0.13 0.00 58 1012.3
20260507100048 63 143 1.7 8.7 0.00 0.13 0.00 56 1012.2
20260507094548 63 99 0.9 6.1 0.00 0.13 0.00 57 1011.9
20260507093047 61 259 0.9 5.2 0.00 0.13 0.00 61 1012.0
20260507091555 59 146 1.7 7.0 0.00 0.13 0.00 64 1011.9
20260507090045 59 254 1.7 7.0 0.00 0.13 0.00 65 1011.7
20260507084541 58 293 0.9 7.0 0.00 0.13 0.00 66 1011.6
20260507083038 58 231 2.6 9.6 0.00 0.13 0.00 66 1011.5
20260507081534 59 283 0.9 5.2 0.00 0.13 0.00 65 1011.4
20260507080032 56 125 2.6 8.7 0.00 0.13 0.00 69 1011.3
20260507074542 57 281 2.6 9.6 0.00 0.13 0.00 68 1011.3
20260507073030 56 304 1.7 7.8 0.00 0.13 0.00 70 1011.2
20260507071528 58 262 2.6 7.8 0.00 0.13 0.00 70 1011.1
20260507070024 56 307 0.9 7.0 0.00 0.13 0.00 73 1011.0
20260507064522 55 236 0.9 8.7 0.00 0.13 0.00 75 1011.0
20260507063022 55 303 1.7 7.8 0.00 0.13 0.00 75 1011.1
20260507061518 54 300 1.7 7.0 0.00 0.13 0.00 77 1010.9
20260507060015 54 214 0.9 5.2 0.00 0.13 0.00 79 1010.8
20260507054512 52 259 1.7 6.1 0.00 0.13 0.00 82 1010.5
20260507053010 52 204 0.9 7.8 0.00 0.13 0.00 83 1010.1
20260507051510 52 250 0.9 4.3 0.00 0.13 0.00 84 1010.0
20260507050008 52 225 0.9 5.2 0.00 0.13 0.00 86 1009.9
20260507044506 51 214 1.7 3.5 0.00 0.13 0.00 87 1009.8
20260507043003 51 202 0.0 4.3 0.00 0.13 0.00 88 1009.6
20260507041501 51 233 0.9 3.5 0.00 0.13 0.00 89 1009.4
20260507040105 51 250 1.7 5.2 0.00 0.13 0.00 89 1009.2
20260507034601 51 187 0.9 2.6 0.00 0.13 0.00 89 1009.1
20260507033155 52 189 0.9 3.5 0.00 0.13 0.00 88 1008.9
20260507031553 52 210 0.0 6.1 0.00 0.13 0.00 87 1008.8
20260507030052 53 219 0.0 2.6 0.00 0.13 0.00 87 1008.6
20260507024557 53 253 0.0 1.7 0.00 0.13 0.00 86 1008.7
20260507023049 53 168 0.9 3.5 0.00 0.13 0.00 86 1008.6
20260507021550 53 212 0.9 4.3 0.00 0.13 0.00 87 1008.6
20260507020053 53 208 0.0 2.6 0.00 0.13 0.00 87 1008.3
20260507014549 53 247 0.9 1.7 0.00 0.13 0.00 88 1008.1
20260507013045 53 207 0.0 2.6 0.00 0.13 0.00 89 1008.3
20260507011547 53 214 0.9 3.5 0.00 0.13 0.00 89 1008.4
20260507010054 53 297 0.9 4.3 0.00 0.13 0.00 88 1008.3
20260507004541 53 279 0.0 3.5 0.00 0.13 0.00 88 1008.1
20260507003040 54 300 0.0 1.7 0.00 0.13 0.00 88 1007.9
20260507001546 54 193 0.0 1.7 0.00 0.13 0.00 88 1007.7
20260507000037 54 120 0.0 0.9 0.00 0.13 0.00 88 1007.7
20260506234535 54 257 0.0 3.5 0.00 0.13 0.00 87 1007.7
20260506233036 54 236 0.0 2.6 0.00 0.13 0.00 87 1007.5
20260506231533 54 227 0.0 2.6 0.00 0.13 0.00 85 1007.4
20260506230031 54 308 0.0 1.7 0.00 0.13 0.00 85 1007.2
20260506224530 54 257 0.0 0.9 0.00 0.13 0.00 85 1007.1
20260506223025 54 257 0.0 2.6 0.00 0.13 0.00 86 1006.9
20260506221523 55 342 0.0 3.5 0.00 0.13 0.00 85 1006.6
20260506220019 55 16 4.3 10.4 0.00 0.13 0.13 84 1005.3
20260506214618 55 301 1.7 7.0 0.00 0.13 0.13 82 1005.7
20260506213016 56 45 0.9 3.5 0.00 0.13 0.13 82 1005.9
20260506211516 56 229 0.9 3.5 0.00 0.13 0.13 83 1005.8
20260506210017 56 259 1.7 7.8 0.00 0.13 0.13 83 1005.6
20260506204516 56 31 0.9 5.2 0.00 0.13 0.13 83 1005.6
20260506203015 57 358 1.7 11.3 0.00 0.13 0.13 83 1005.4
20260506201520 57 53 0.0 1.7 0.00 0.13 0.13 84 1004.3
20260506200016 57 324 0.0 3.5 0.00 0.13 0.13 84 1004.2
20260506194514 57 2 1.7 4.3 0.00 0.13 0.13 83 1004.1
20260506193013 57 24 0.0 2.6 0.00 0.13 0.13 83 1004.2
20260506191513 57 41 1.7 7.8 0.00 0.13 0.13 82 1004.2
20260506190012 58 76 2.6 12.2 0.00 0.13 0.13 81 1003.9
20260506184520 60 24 2.6 9.6 0.00 0.13 0.13 81 1003.7
20260506183010 60 292 3.5 11.3 0.00 0.13 0.13 80 1003.3
20260506181509 61 7 1.7 6.1 0.00 0.13 0.13 77 1003.2
20260506180010 62 62 2.6 6.1 0.00 0.13 0.13 75 1003.1
20260506174511 63 349 2.6 8.7 0.00 0.13 0.13 76 1003.0
20260506173009 63 39 1.7 5.2 0.00 0.13 0.13 76 1002.9
20260506171508 65 35 0.9 1.7 0.00 0.13 0.13 72 1002.8